Weather History for Lincoln, IL

Change the Weather History Date:

Saturday, October 19, 2013

  Actual Average (KSPI) Record (KSPI)
Temperature  
Mean Temperature 49 °F 54 °F  
Max Temperature 57 °F 65 °F 85 °F (1953)
Min Temperature 41 °F 43 °F 19 °F (1992)
Degree Days  
Heating Degree Days 16 11  
Month to date heating degree days 169  
Since 1 July heating degree days 250  
Cooling Degree Days 0 0  
Month to date cooling degree days 19  
Year to date cooling degree days 1118  
Moisture  
Dew Point 38 °F    
Average Humidity 70    
Maximum Humidity 96    
Minimum Humidity 40    
Precipitation  
Precipitation 0.00 in 0.11 in 1.64 in (1885)
Month to date precipitation 1.90  
Year to date precipitation 30.45  
Snow  
Snow 0.00 in 0.00 in 0.30 in (1989)
Month to date snowfall 0.0  
Since 1 July snowfall 0.0  
Since 1 September snowfall 0.0  
Snow Depth -    
Sea Level Pressure  
Sea Level Pressure 29.92 in    
Wind  
Wind Speed 3 mph (SW)    
Max Wind Speed 9 mph    
Max Gust Speed 18 mph    
Visibility 9 miles    
Events Rain    
T = Trace of Precipitation, MM = Missing Value Source: NWS Daily Summary

Daily Weather History Graph

Daily Weather History Graph

Search for Another Location

Airport:

Trip Planner

Search our weather history database for the weather conditions in past years. The results will help you decide how hot, cold, wet, or windy it might be!

Date:

Astronomy

Oct. 19, 2013 Rise Set
Actual Time 7:12 AM CDT 6:11 PM CDT
Civil Twilight 6:44 AM CDT 6:38 PM CDT
Nautical Twilight 6:13 AM CDT 7:10 PM CDT
Astronomical Twilight 5:41 AM CDT 7:41 PM CDT
Moon 6:39 PM CDT (10/19) 7:50 AM CDT (10/19)
Length of Visible Light 11h 53m
Length of Day
10h 58m
Waxing Gibbous, 99% of the Moon is Illuminated
Oct 19
Waxing Gibbous
Oct 26
Last Quarter
Nov 3
New
Nov 9
First Quarter
Nov 17
Full

Hourly Weather History & Observations

Time (CDT) Temp. Windchill Dew Point Humidity Pressure Visibility Wind Dir Wind Speed Gust Speed Precip Events Conditions
12:15 AM 44.8 °F 43.3 °F 42.8 °F 93% 29.97 in 10.0 mi NW 3.5 mph - N/A   Drizzle
12:35 AM 44.6 °F - 42.8 °F 93% 29.97 in 7.0 mi Calm Calm - N/A   Drizzle
12:55 AM 44.6 °F - 42.8 °F 93% 29.97 in 7.0 mi Calm Calm - N/A Rain Light Rain
1:15 AM 44.6 °F - 42.8 °F 93% 29.96 in 7.0 mi Calm Calm - N/A Rain Light Rain
1:35 AM 44.1 °F 42.5 °F 42.3 °F 93% 29.97 in 7.0 mi WNW 3.5 mph - N/A Rain Light Rain
1:55 AM 43.9 °F - 42.1 °F 93% 29.97 in 7.0 mi Calm Calm - N/A Rain Light Rain
2:15 AM 43.7 °F - 41.9 °F 93% 29.97 in 5.0 mi Calm Calm - N/A Rain Rain
2:35 AM 43.3 °F - 41.9 °F 95% 29.96 in 7.0 mi Calm Calm - N/A Rain Light Rain
2:55 AM 43.3 °F 41.7 °F 41.9 °F 95% 29.96 in 5.0 mi West 3.5 mph - N/A Rain Rain
3:15 AM 43.3 °F - 41.7 °F 94% 29.96 in 7.0 mi Calm Calm - N/A Rain Light Rain
3:35 AM 43.2 °F 41.5 °F 41.5 °F 94% 29.95 in 7.0 mi West 3.5 mph - N/A Rain Light Rain
3:55 AM 43.0 °F - 41.5 °F 95% 29.94 in 7.0 mi Calm Calm - N/A Rain Rain
4:15 AM 43.0 °F - 41.5 °F 95% 29.94 in 7.0 mi Calm Calm - N/A Rain Light Rain
4:35 AM 43.0 °F - 41.5 °F 95% 29.94 in 10.0 mi Calm Calm - N/A   Light Drizzle
4:55 AM 43.0 °F - 41.9 °F 96% 29.94 in 10.0 mi Calm Calm - N/A   Overcast
5:15 AM 43.0 °F - 41.9 °F 96% 29.94 in 5.0 mi Calm Calm - N/A   Overcast
5:35 AM 42.8 °F 41.1 °F 41.5 °F 95% 29.94 in 10.0 mi SW 3.5 mph - N/A   Mostly Cloudy
5:55 AM 42.4 °F 39.6 °F 41.2 °F 95% 29.94 in 10.0 mi WSW 4.6 mph - N/A   Mostly Cloudy
6:15 AM 42.6 °F - 41.2 °F 95% 29.94 in 10.0 mi Calm Calm - N/A   Mostly Cloudy
6:35 AM 42.4 °F - 41.2 °F 95% 29.94 in 10.0 mi Calm Calm - N/A   Overcast
6:55 AM 42.3 °F - 40.6 °F 94% 29.94 in 10.0 mi Calm Calm - N/A   Mostly Cloudy
7:15 AM 41.5 °F 39.6 °F 40.1 °F 95% 29.95 in 10.0 mi WSW 3.5 mph - N/A   Mostly Cloudy
7:35 AM 41.2 °F - 39.7 °F 95% 29.95 in 10.0 mi Calm Calm - N/A   Scattered Clouds
7:55 AM 41.4 °F 38.4 °F 40.1 °F 95% 29.96 in 10.0 mi WSW 4.6 mph - N/A   Clear
8:15 AM 42.3 °F 40.5 °F 40.3 °F 93% 29.96 in 10.0 mi WSW 3.5 mph - N/A   Scattered Clouds
8:35 AM 42.8 °F 40.1 °F 40.3 °F 91% 29.95 in 10.0 mi SW 4.6 mph - N/A   Scattered Clouds
8:55 AM 43.3 °F 39.2 °F 40.1 °F 88% 29.96 in 10.0 mi WSW 6.9 mph - N/A   Scattered Clouds
9:15 AM 44.6 °F 41.4 °F 40.6 °F 86% 29.96 in 10.0 mi West 5.8 mph - N/A   Scattered Clouds
9:35 AM 45.5 °F 43.2 °F 39.7 °F 80% 29.95 in 10.0 mi West 4.6 mph - N/A   Scattered Clouds
9:55 AM 45.3 °F 41.1 °F 38.5 °F 77% 29.94 in 10.0 mi WSW 8.1 mph - N/A   Scattered Clouds
10:15 AM 47.3 °F - 38.8 °F 72% 29.94 in 10.0 mi West 5.8 mph - N/A   Clear
10:35 AM 48.2 °F - 38.3 °F 69% 29.94 in 10.0 mi West 5.8 mph - N/A   Scattered Clouds
10:55 AM 49.5 °F - 38.7 °F 66% 29.94 in 10.0 mi SW 5.8 mph - N/A   Scattered Clouds
11:15 AM 51.1 °F - 38.1 °F 61% 29.93 in 10.0 mi West 9.2 mph - N/A   Scattered Clouds
11:35 AM 52.2 °F - 37.8 °F 58% 29.93 in 10.0 mi West 5.8 mph - N/A   Clear
11:55 AM 53.8 °F - 37.6 °F 54% 29.92 in 10.0 mi SW 6.9 mph - N/A   Scattered Clouds
1:55 PM 55.9 °F - 36.3 °F 48% 29.89 in 10.0 mi WSW 9.2 mph 17.3 mph N/A   Scattered Clouds
2:15 PM 57.0 °F - 36.1 °F 46% 29.89 in 10.0 mi WSW 9.2 mph 17.3 mph N/A   Scattered Clouds
2:35 PM 56.7 °F - 35.2 °F 45% 29.89 in 10.0 mi WSW 8.1 mph 18.4 mph N/A   Scattered Clouds
2:55 PM 57.4 °F - 34.9 °F 43% 29.88 in 10.0 mi WSW 9.2 mph 18.4 mph N/A   Scattered Clouds
3:15 PM 56.3 °F - 34.0 °F 43% 29.87 in 10.0 mi West 9.2 mph 18.4 mph N/A   Scattered Clouds
3:35 PM 57.2 °F - 34.2 °F 42% 29.87 in 10.0 mi WSW 5.8 mph 18.4 mph N/A   Scattered Clouds
3:55 PM 57.0 °F - 33.8 °F 42% 29.87 in 10.0 mi SW 9.2 mph - N/A   Scattered Clouds
4:15 PM 56.8 °F - 32.5 °F 40% 29.87 in 10.0 mi WSW 5.8 mph 18.4 mph N/A   Clear
4:35 PM 56.7 °F - 32.2 °F 40% 29.87 in 10.0 mi WSW 6.9 mph - N/A   Clear
4:55 PM 56.3 °F - 32.4 °F 40% 29.87 in 10.0 mi SW 4.6 mph - N/A   Clear
5:15 PM 55.8 °F - 32.0 °F 41% 29.87 in 10.0 mi WSW 4.6 mph 16.1 mph N/A   Clear
5:35 PM 54.5 °F - 32.7 °F 44% 29.87 in 10.0 mi SW 4.6 mph - N/A   Clear
5:55 PM 53.6 °F - 32.9 °F 45% 29.87 in 10.0 mi SW 4.6 mph - N/A   Clear
6:15 PM 52.7 °F - 33.3 °F 48% 29.88 in 10.0 mi SW 3.5 mph - N/A   Mostly Cloudy
6:35 PM 52.7 °F - 33.3 °F 48% 29.89 in 10.0 mi SW 3.5 mph - N/A   Overcast
6:55 PM 52.3 °F - 33.8 °F 49% 29.89 in 10.0 mi SSW 4.6 mph - N/A   Overcast
7:15 PM 51.1 °F - 34.5 °F 53% 29.89 in 10.0 mi SSW 5.8 mph - N/A   Mostly Cloudy
7:35 PM 51.6 °F - 34.7 °F 52% 29.90 in 10.0 mi SW 5.8 mph - N/A   Mostly Cloudy
7:55 PM 51.4 °F - 34.9 °F 53% 29.90 in 10.0 mi SSW 6.9 mph - N/A   Overcast
8:15 PM 50.9 °F - 35.1 °F 55% 29.90 in 10.0 mi SSW 5.8 mph - N/A   Scattered Clouds
8:35 PM 50.4 °F - 35.4 °F 57% 29.90 in 10.0 mi SSW 5.8 mph - N/A   Scattered Clouds
8:55 PM 50.5 °F - 35.6 °F 57% 29.90 in 10.0 mi SSW 4.6 mph - N/A   Overcast
9:15 PM 50.0 °F - 36.0 °F 59% 29.90 in 10.0 mi South 4.6 mph - N/A   Overcast
9:35 PM 50.4 °F - 36.5 °F 59% 29.90 in 10.0 mi SSW 6.9 mph - N/A   Overcast
9:55 PM 50.2 °F - 36.9 °F 60% 29.90 in 10.0 mi SSW 5.8 mph - N/A   Overcast
10:15 PM 50.4 °F - 37.2 °F 61% 29.90 in 10.0 mi SSW 5.8 mph - N/A   Overcast
10:35 PM 51.3 °F - 36.7 °F 57% 29.90 in 10.0 mi SSW 6.9 mph - N/A   Overcast
10:55 PM 51.4 °F - 36.5 °F 57% 29.90 in 10.0 mi SSW 5.8 mph - N/A   Overcast
11:15 PM 51.4 °F - 36.5 °F 57% 29.90 in 10.0 mi SSW 6.9 mph - N/A   Overcast
11:35 PM 51.3 °F - 36.5 °F 57% 29.90 in 10.0 mi SSW 6.9 mph - N/A   Overcast
11:55 PM 50.9 °F - 36.5 °F 58% 29.89 in 10.0 mi SSW 8.1 mph - N/A   Overcast